カタログに戻る

STARLINK-3746

運用中通信VLEO
NORAD 52268·PAYLOAD·🇺🇸 United States

打ち上げ Apr 21, 2022 から Cape Canaveral Space Force Station

Loading…

次のパス (今後24時間)

TLE

最新Source: CelesTrak SupGP

元期: Sep 15, 2026, 01:59 UTC

1 52268C 22041H   26258.08312500  .00043526  00000+0  12861-2 0  2581
2 52268  53.1595 324.7374 0001183  88.0011 109.6482 15.34366270    12

AllMySatでSTARLINK-3746をリアルタイム追跡

Download on the App Store